TimeEST,TemperatureF,Dew PointF,Humidity,Sea Level PressureIn,VisibilityMPH,Wind Direction,Wind SpeedMPH,Gust SpeedMPH,PrecipitationIn,Events,Conditions,WindDirDegrees,DateUTC
12:15 AM,60.8,59.0,94,29.85,-9999.0,ESE,15.0,-,0.09,,Overcast,120,2003-01-01 05:15:00
12:35 AM,60.8,60.8,100,29.85,-9999.0,SE,12.7,-,0.16,,Overcast,140,2003-01-01 05:35:00
12:55 AM,60.8,60.8,100,29.82,-9999.0,SE,13.8,-,0.22,,Overcast,130,2003-01-01 05:55:00
1:15 AM,60.8,60.8,100,29.80,-9999.0,SE,15.0,-,0.04,,Overcast,130,2003-01-01 06:15:00
1:35 AM,60.8,60.8,100,29.81,-9999.0,SSE,12.7,16.1,0.06,,Overcast,150,2003-01-01 06:35:00
1:55 AM,60.8,60.8,100,29.80,-9999.0,SE,13.8,19.6,0.06,,Overcast,140,2003-01-01 06:55:00
2:15 AM,62.6,60.8,94,29.79,-9999.0,SSE,11.5,-,N/A,,Overcast,150,2003-01-01 07:15:00
2:35 AM,62.6,60.8,94,29.80,-9999.0,South,12.7,20.7,N/A,,Overcast,180,2003-01-01 07:35:00
2:55 AM,62.6,60.8,94,29.80,-9999.0,South,10.4,20.7,N/A,,Overcast,180,2003-01-01 07:55:00
3:15 AM,62.6,60.8,94,29.80,-9999.0,South,8.1,-,N/A,,Unknown,190,2003-01-01 08:15:00
3:35 AM,62.6,60.8,94,29.81,-9999.0,SSW,6.9,-,N/A,,Unknown,200,2003-01-01 08:35:00
3:55 AM,62.6,60.8,94,29.81,-9999.0,SSW,5.8,-,N/A,,Unknown,200,2003-01-01 08:55:00
4:15 AM,62.6,60.8,94,29.81,-9999.0,SSW,10.4,16.1,N/A,,Unknown,210,2003-01-01 09:15:00
4:35 AM,62.6,60.8,94,29.81,-9999.0,SSW,8.1,-,N/A,,Unknown,210,2003-01-01 09:35:00
4:55 AM,62.6,60.8,94,29.81,-9999.0,SW,6.9,-,N/A,,Unknown,220,2003-01-01 09:55:00
5:15 AM,62.6,60.8,94,29.81,-9999.0,SW,6.9,-,N/A,,Unknown,230,2003-01-01 10:15:00
5:35 AM,62.6,60.8,94,29.80,-9999.0,SW,5.8,-,N/A,,Unknown,230,2003-01-01 10:35:00
5:55 AM,60.8,59.0,94,29.81,-9999.0,SW,5.8,-,N/A,,Unknown,220,2003-01-01 10:55:00
6:15 AM,60.8,59.0,94,29.81,-9999.0,SSW,4.6,-,N/A,,Unknown,200,2003-01-01 11:15:00
6:35 AM,60.8,57.2,88,29.81,-9999.0,SSW,4.6,-,N/A,,Unknown,200,2003-01-01 11:35:00
6:55 AM,59.0,57.2,94,29.81,-9999.0,South,5.8,-,N/A,,Unknown,170,2003-01-01 11:55:00
7:15 AM,59.0,57.2,94,29.82,-9999.0,South,5.8,-,N/A,,Unknown,190,2003-01-01 12:15:00
7:35 AM,59.0,57.2,94,29.83,-9999.0,South,5.8,-,N/A,,Unknown,190,2003-01-01 12:35:00
7:55 AM,60.8,57.2,88,29.83,-9999.0,South,5.8,-,N/A,,Unknown,190,2003-01-01 12:55:00
8:15 AM,60.8,57.2,88,29.84,-9999.0,SSW,6.9,-,N/A,,Unknown,200,2003-01-01 13:15:00
8:35 AM,62.6,57.2,82,29.84,-9999.0,SW,6.9,-,N/A,,Clear,230,2003-01-01 13:35:00
8:55 AM,62.6,57.2,82,29.85,-9999.0,SW,9.2,-,N/A,,Clear,220,2003-01-01 13:55:00
9:15 AM,64.4,59.0,83,29.86,-9999.0,SW,10.4,-,N/A,,Clear,220,2003-01-01 14:15:00
9:35 AM,64.4,59.0,83,29.86,-9999.0,SW,13.8,-,N/A,,Partly Cloudy,230,2003-01-01 14:35:00
9:55 AM,64.4,60.8,88,29.87,-9999.0,SW,8.1,18.4,N/A,,Unknown,230,2003-01-01 14:55:00
10:15 AM,66.2,59.0,78,29.87,-9999.0,WSW,12.7,17.3,N/A,,Clear,250,2003-01-01 15:15:00
10:35 AM,66.2,59.0,78,29.86,-9999.0,WSW,10.4,19.6,0.01,,Clear,250,2003-01-01 15:35:00
10:55 AM,69.8,57.2,64,29.85,10.0,WSW,17.3,23.0,0.01,,Clear,240,2003-01-01 15:55:00
11:15 AM,69.8,55.4,60,29.84,10.0,SW,19.6,26.5,N/A,,Clear,230,2003-01-01 16:15:00
11:35 AM,71.6,55.4,57,29.83,10.0,SW,16.1,24.2,N/A,,Clear,230,2003-01-01 16:35:00
11:55 AM,71.6,53.6,53,29.82,10.0,WSW,19.6,27.6,N/A,,Clear,240,2003-01-01 16:55:00
12:15 PM,71.6,53.6,53,29.82,-9999.0,WSW,13.8,25.3,N/A,,Clear,240,2003-01-01 17:15:00
12:35 PM,73.4,53.6,50,29.81,-9999.0,WSW,19.6,28.8,N/A,,Clear,250,2003-01-01 17:35:00
12:55 PM,73.4,51.8,47,29.81,-9999.0,WSW,18.4,29.9,N/A,,Partly Cloudy,240,2003-01-01 17:55:00
1:15 PM,73.4,53.6,50,29.81,-9999.0,WSW,18.4,26.5,N/A,,Partly Cloudy,240,2003-01-01 18:15:00
1:35 PM,73.4,51.8,47,29.81,-9999.0,WSW,13.8,32.2,N/A,,Partly Cloudy,240,2003-01-01 18:35:00
1:55 PM,73.4,53.6,50,29.81,-9999.0,WSW,15.0,25.3,N/A,,Clear,240,2003-01-01 18:55:00
2:15 PM,73.4,53.6,50,29.81,-9999.0,SW,18.4,27.6,N/A,,Partly Cloudy,230,2003-01-01 19:15:00
2:35 PM,73.4,53.6,50,29.81,-9999.0,WSW,15.0,26.5,N/A,,Scattered Clouds,240,2003-01-01 19:35:00
2:55 PM,73.4,55.4,53,29.81,-9999.0,WSW,13.8,20.7,N/A,,Partly Cloudy,250,2003-01-01 19:55:00
3:15 PM,71.6,55.4,57,29.82,-9999.0,WSW,15.0,24.2,N/A,,Partly Cloudy,250,2003-01-01 20:15:00
3:35 PM,71.6,53.6,53,29.82,-9999.0,West,16.1,25.3,N/A,,Scattered Clouds,260,2003-01-01 20:35:00
3:55 PM,71.6,53.6,53,29.83,-9999.0,WSW,12.7,21.9,N/A,,Partly Cloudy,250,2003-01-01 20:55:00
4:15 PM,69.8,55.4,60,29.84,-9999.0,West,12.7,21.9,N/A,,Scattered Clouds,260,2003-01-01 21:15:00
4:35 PM,69.8,53.6,56,29.84,-9999.0,WSW,17.3,21.9,N/A,,Partly Cloudy,240,2003-01-01 21:35:00
4:55 PM,68.0,53.6,60,29.85,-9999.0,WSW,12.7,23.0,N/A,,Partly Cloudy,250,2003-01-01 21:55:00
5:15 PM,66.2,53.6,64,29.85,-9999.0,WSW,11.5,-,N/A,,Scattered Clouds,240,2003-01-01 22:15:00
5:35 PM,66.2,53.6,64,29.86,-9999.0,WSW,11.5,17.3,N/A,,Partly Cloudy,250,2003-01-01 22:35:00
5:55 PM,66.2,53.6,64,29.87,-9999.0,WSW,9.2,23.0,N/A,,Clear,250,2003-01-01 22:55:00
6:15 PM,64.4,53.6,68,29.88,-9999.0,WSW,11.5,17.3,N/A,,Clear,250,2003-01-01 23:15:00
6:35 PM,64.4,53.6,68,29.88,-9999.0,WSW,11.5,-,N/A,,Clear,250,2003-01-01 23:35:00
6:55 PM,62.6,53.6,72,29.89,10.0,WSW,12.7,17.3,N/A,,Clear,240,2003-01-01 23:55:00
7:15 PM,62.6,53.6,72,29.90,10.0,WSW,8.1,16.1,N/A,,Clear,250,2003-01-02 00:15:00
7:35 PM,62.6,51.8,68,29.90,10.0,WSW,9.2,-,N/A,,Clear,250,2003-01-02 00:35:00
7:55 PM,60.8,51.8,72,29.91,10.0,West,8.1,-,N/A,,Clear,260,2003-01-02 00:55:00
8:15 PM,60.8,51.8,72,29.92,10.0,West,8.1,-,N/A,,Clear,270,2003-01-02 01:15:00
8:35 PM,60.8,50.0,68,29.93,-9999.0,West,8.1,-,N/A,,Clear,260,2003-01-02 01:35:00
8:55 PM,59.0,51.8,77,29.94,-9999.0,West,5.8,-,N/A,,Clear,260,2003-01-02 01:55:00
9:15 PM,57.2,51.8,82,-9999,-9999.0,West,4.6,-,N/A,,Clear,260,2003-01-02 02:15:00
9:35 PM,57.2,50.0,77,29.95,-9999.0,WSW,3.5,-,N/A,,Clear,250,2003-01-02 02:35:00
9:55 PM,57.2,50.0,77,29.96,-9999.0,SW,3.5,-,N/A,,Clear,230,2003-01-02 02:55:00
10:15 PM,55.4,51.8,88,29.96,-9999.0,WSW,4.6,-,N/A,,Unknown,240,2003-01-02 03:15:00
10:35 PM,55.4,50.0,82,29.97,-9999.0,SW,3.5,-,N/A,,Clear,220,2003-01-02 03:35:00
10:55 PM,55.4,50.0,82,29.98,-9999.0,WSW,4.6,-,N/A,,Clear,240,2003-01-02 03:55:00
11:15 PM,55.4,50.0,82,29.98,-9999.0,West,5.8,-,N/A,,Scattered Clouds,260,2003-01-02 04:15:00
11:35 PM,55.4,51.8,88,29.98,-9999.0,West,4.6,-,N/A,,Mostly Cloudy,270,2003-01-02 04:35:00
11:55 PM,55.4,50.0,82,29.98,-9999.0,Calm,Calm,-,N/A,,Mostly Cloudy,0,2003-01-02 04:55:00